Weather in Dubovyy Umet

Russia / Samara Oblast     52°58′29″N   50°17′26″E
temp.,
°C
wind,
m/s
gust,
m/s
humid.,
%
clouds,
%
prec.,
mm/h
press.,
hPa
HPBL,
m
4 march, thu
thu401:00−10w469434 0.0 100886
04:00−12wsw479629 0.0 1009101
07:00−11sw5109559 0.0 1008177
10:00−7wsw7129472 0.1 1007423
13:00−3sw9139299 0.1 1004762
16:00−1sw101696100 0.7 10021069
19:00+1wsw101791100 0.6 10011027
22:000wsw91593100 0.8 1002904
5 march, fri
fri501:00−1sw81492100 0.1 1001639
04:00−1sw71490100 0.2 1002567
07:00−1sw61297100 0.7 1001617
10:000wsw59100100 2.6 1001538
13:000wnw46100100 1.8 1003491
16:00−1n359799 2.5 1005372
19:00−4nnw2396100 1.0 100875
22:00−10nw228568 1.0 101221
6 march, sat
sat601:00−12wnw22799 0.0 101321
04:00−13wsw238733 0.0 101421
07:00−13sw239456 0.0 101521
10:00−10wsw359468 0.0 1015172
13:00−7w349494 0.0 1015243
16:00−5nnw249097 0.1 1014486
19:00−10n3487100 0.0 101456
22:00−13n3592100 0.0 101495
7 march, sun
sun701:00−16n339486 0.0 101446
04:00−18nnw239555 0.0 101422
07:00−19nw22960 0.0 101520
10:00−15w23920 0.0 1015116
13:00−12sw46880 0.0 1015275
16:00−10sw6108821 0.0 1013444
19:00−11ssw5129563 0.0 1012322
22:00−8ssw7149281 0.1 1011614
8 march, mon
mon801:00−6ssw91690100 0.1 1006776
04:00−5sw91690100 0.8 1004924
07:00−4sw101694100 0.7 1003924
10:00−6wsw3880100 1.3 1005435
13:00−4s478289 0.0 1006456
16:00−2ssw8149595 1.4 1003949
19:00−1sw101693100 1.3 1000874
22:00−7wsw91674100 1.9 1003858